Temp
-16 -16 -15 -15 -15 -16 -16 -16 -18 -18 -18 -19 -18 -19 -19 -19 -19 -19 -19 -18 -18 -18 -18 -18 -18 -18 -18 -18 -17 -17 -17 -17
-15 -16 -16 -16 -16 -16 -16 -16 -17 -18 -18 -18 -18 -18 -18 -18 -18 -18 -18 -18 -18 -18 -18 -18 -18 -18 -18 -18 -17 -17 -17 -17
-15 -16 -16 -16 -16 -17 -17 -17 -18 -18 -18 -17 -17 -18 -18 -18 -18 -18 -18 -18 -17 -17 -17 -18 -18 -18 -18 -18 -18 -18 -18 -18
-16 -16 -16 -17 -17 -17 -17 -18 -18 -18 -18 -18 -18 -18 -18 -18 -18 -18 -18 -18 -17 -17 -17 -17 -17 -18 -18 -18 -18 -18 -18 -19
-17 -17 -17 -17 -17 -18 -18 -18 -18 -18 -18 -18 -18 -18 -18 -18 -18 -18 -18 -18 -18 -18 -18 -18 -18 -18 -17 -18 -18 -19 -19 -19
-17 -17 -17 -18 -18 -18 -19 -18 -18 -18 -18 -18 -18 -18 -18 -18 -18 -18 -18 -18 -18 -18 -18 -18 -18 -18 -18 -19 -19 -19 -19 -19
-17 -18 -18 -18 -19 -19 -19 -18 -18 -18 -18 -18 -18 -18 -18 -18 -18 -18 -18 -18 -18 -18 -18 -18 -18 -18 -19 -19 -19 -19 -19 -19
-18 -18 -18 -19 -19 -19 -19 -19 -19 -18 -18 -18 -18 -18 -18 -18 -18 -18 -18 -18 -19 -19 -19 -19 -19 -19 -19 -19 -19 -19 -19 -19
-19 -19 -19 -19 -19 -19 -19 -19 -19 -19 -18 -18 -18 -18 -18 -18 -18 -18 -18 -18 -18 -19 -19 -19 -20 -20 -20 -20 -20 -20 -20 -20
-19 -19 -19 -19 -19 -19 -19 -19 -19 -19 -18 -18 -18 -18 -18 -18 -18 -18 -19 -19 -19 -19 -19 -20 -20 -20 -20 -20 -20 -20 -20 -22
-19 -19 -19 -19 -19 -19 -19 -19 -19 -19 -18 -19 -19 -19 -19 -19 -19 -19 -19 -19 -19 -20 -20 -20 -21 -20 -20 -20 -21 -21 -22 -24
-20 -19 -19 -19 -19 -19 -19 -19 -19 -19 -19 -19 -19 -19 -19 -19 -19 -19 -20 -20 -20 -20 -21 -21 -21 -21 -21 -21 -23 -24 -25 -26
-20 -20 -20 -20 -20 -20 -20 -20 -20 -19 -19 -19 -19 -20 -20 -20 -20 -20 -20 -20 -20 -20 -21 -21 -21 -21 -23 -24 -25 -25 -26 -26
-20 -20 -20 -20 -20 -20 -20 -20 -20 -20 -19 -20 -20 -20 -20 -20 -20 -20 -20 -20 -20 -21 -21 -21 -22 -23 -25 -25 -26 -26 -27 -27
-20 -20 -20 -20 -21 -21 -20 -20 -20 -20 -20 -20 -20 -20 -20 -20 -20 -20 -20 -20 -21 -21 -21 -22 -23 -25 -26 -26 -27 -27 -27 -27
-20 -20 -21 -21 -21 -20 -20 -20 -20 -20 -20 -20 -20 -20 -20 -20 -20 -20 -20 -21 -21 -21 -22 -23 -25 -26 -26 -27 -27 -27 -28 -28
-21 -21 -21 -21 -21 -21 -21 -21 -21 -21 -21 -21 -20 -20 -20 -21 -21 -21 -21 -21 -21 -22 -23 -25 -25 -26 -27 -27 -27 -28 -28 -29
-21 -21 -21 -21 -21 -21 -21 -21 -21 -21 -21 -21 -20 -20 -21 -21 -21 -21 -21 -22 -22 -22 -24 -25 -26 -26 -27 -27 -28 -28 -29 -29
-21 -21 -21 -21 -21 -21 -21 -21 -21 -21 -21 -20 -20 -21 -21 -21 -21 -21 -22 -22 -22 -23 -24 -25 -26 -27 -27 -27 -28 -28 -29 -29
Height
5764 5760 5758 5755 5752 5748 5744 5739 5735 5731 5727 5722 5718 5712 5706 5701 5696 5693 5690 5686 5684 5681 5680 5679 5676 5676 5675 5674 5673 5673 5673 5674
5760 5755 5752 5749 5746 5742 5737 5733 5730 5727 5722 5718 5713 5708 5702 5696 5691 5687 5683 5681 5678 5675 5673 5672 5670 5668 5666 5664 5663 5662 5661 5661
5752 5749 5748 5744 5740 5735 5731 5727 5723 5718 5713 5709 5704 5698 5693 5688 5682 5678 5675 5672 5670 5669 5667 5665 5662 5659 5658 5655 5653 5651 5650 5648
5745 5743 5740 5737 5733 5729 5725 5721 5716 5712 5707 5702 5697 5691 5685 5681 5676 5671 5667 5664 5661 5658 5656 5653 5651 5649 5646 5643 5640 5638 5636 5635
5739 5737 5734 5731 5726 5721 5719 5715 5711 5707 5702 5697 5692 5688 5683 5678 5673 5667 5661 5656 5651 5648 5644 5641 5637 5633 5630 5628 5625 5622 5619 5618
5734 5731 5727 5724 5720 5717 5714 5709 5705 5701 5696 5691 5685 5680 5675 5670 5666 5661 5656 5650 5644 5638 5633 5628 5623 5618 5613 5609 5606 5603 5601 5600
5729 5725 5722 5718 5714 5711 5707 5702 5698 5694 5689 5684 5679 5674 5669 5663 5658 5652 5646 5640 5634 5627 5621 5615 5609 5603 5598 5593 5589 5585 5582 5580
5722 5719 5715 5712 5708 5704 5700 5697 5692 5688 5683 5677 5672 5666 5661 5656 5650 5644 5637 5630 5623 5615 5608 5601 5593 5587 5581 5576 5571 5566 5562 5558
5714 5711 5708 5706 5703 5699 5695 5691 5686 5681 5676 5670 5665 5659 5653 5647 5640 5632 5625 5618 5611 5603 5595 5587 5578 5570 5563 5556 5551 5545 5538 5534
5708 5705 5703 5700 5696 5692 5687 5684 5679 5674 5669 5663 5657 5650 5644 5637 5629 5621 5613 5604 5596 5587 5579 5570 5561 5552 5544 5536 5528 5520 5512 5507
5702 5699 5696 5694 5689 5685 5680 5677 5672 5667 5662 5656 5649 5643 5635 5627 5618 5609 5600 5591 5582 5573 5563 5553 5544 5534 5523 5513 5502 5493 5487 5480
5695 5693 5690 5687 5682 5678 5674 5670 5665 5660 5654 5647 5640 5633 5625 5616 5608 5598 5589 5579 5569 5559 5548 5536 5525 5513 5500 5489 5478 5469 5463 5458
5689 5686 5683 5679 5675 5670 5666 5662 5658 5652 5646 5639 5632 5624 5616 5606 5597 5588 5578 5567 5556 5544 5531 5518 5505 5491 5478 5467 5459 5450 5443 5437
5683 5680 5676 5673 5668 5663 5659 5655 5650 5643 5637 5631 5623 5615 5607 5598 5588 5578 5566 5555 5543 5529 5515 5500 5485 5471 5460 5449 5440 5431 5423 5417
5677 5674 5670 5666 5661 5657 5652 5647 5642 5636 5629 5622 5615 5607 5598 5588 5578 5567 5555 5543 5530 5516 5500 5484 5470 5457 5445 5433 5422 5413 5405 5398
5671 5668 5664 5659 5655 5650 5644 5639 5633 5627 5622 5615 5607 5598 5589 5579 5568 5557 5545 5532 5518 5504 5487 5471 5458 5445 5433 5421 5409 5399 5391 5385
5665 5662 5657 5652 5647 5643 5638 5632 5627 5621 5615 5608 5600 5591 5581 5571 5560 5549 5536 5523 5509 5493 5477 5463 5450 5436 5423 5410 5400 5390 5382 5376
5659 5655 5650 5644 5641 5636 5631 5626 5621 5615 5608 5601 5593 5585 5575 5565 5554 5542 5529 5516 5501 5485 5470 5457 5443 5429 5416 5404 5393 5384 5376 5370
5651 5648 5642 5638 5633 5629 5624 5618 5613 5608 5602 5595 5588 5579 5570 5559 5548 5536 5524 5511 5497 5481 5467 5453 5440 5426 5412 5400 5389 5379 5372 5365
Wind_Speed
23 24 26 26 28 29 30 31 28 27 26 26 29 29 30 31 31 29 29 30 28 26 26 25 24 26 27 31 35 40 46 48
22 22 23 25 27 29 32 32 28 24 26 28 26 25 26 30 30 30 29 26 27 28 29 30 31 32 34 35 37 38 40 43
23 23 23 24 27 29 29 29 27 27 29 30 30 30 29 31 29 28 27 27 28 28 29 32 36 37 38 41 44 46 47 47
24 24 25 27 28 28 29 27 27 29 30 30 30 31 31 30 30 31 32 33 34 34 35 37 39 41 43 45 48 51 53 55
26 25 26 29 30 30 27 27 28 29 29 29 29 28 27 28 30 31 33 36 37 39 42 45 46 49 51 52 53 54 56 58
25 26 28 30 30 29 26 29 29 29 30 31 31 31 31 31 31 32 32 35 38 41 44 48 51 53 54 53 51 51 52 54
25 27 28 30 30 28 28 31 30 31 31 32 31 32 32 33 34 36 37 39 41 44 46 49 50 52 52 52 53 54 55 58
27 27 29 29 29 28 31 32 31 32 33 33 34 34 34 37 39 40 42 43 45 47 49 50 51 52 53 55 56 58 60 62
27 29 29 29 28 29 32 32 32 33 34 34 36 36 38 41 44 46 48 48 48 50 51 52 52 53 55 56 58 62 66 68
28 31 30 29 28 30 32 31 33 32 33 38 38 40 42 44 47 50 50 50 51 53 55 53 52 55 58 60 62 66 67 67
32 31 30 29 29 31 33 31 32 32 38 37 38 42 45 48 49 49 50 50 52 54 54 53 56 58 60 63 66 64 62 63
27 28 28 28 29 32 32 32 35 36 37 38 42 44 47 47 48 50 51 51 53 55 55 57 61 62 64 62 60 56 55 53
28 27 27 28 30 31 31 31 34 37 37 41 43 45 44 46 49 51 52 52 53 56 57 60 62 63 59 53 48 51 52 53
26 27 28 27 27 33 32 33 35 36 40 42 42 42 44 49 49 52 52 53 55 57 59 61 62 55 50 51 49 47 47 49
25 27 30 31 32 32 34 34 34 38 40 41 41 45 50 46 48 51 53 53 55 57 59 60 53 48 48 46 44 41 41 41
26 26 28 30 30 31 33 35 37 38 39 39 44 46 45 46 50 52 52 54 54 55 58 52 48 47 44 43 40 36 34 31
26 27 32 32 31 31 33 35 36 37 36 40 41 43 45 47 50 51 52 51 51 57 52 45 47 44 43 40 34 31 28 25
32 32 31 34 33 32 32 33 33 33 37 37 40 43 44 47 49 49 50 45 53 52 46 46 45 44 41 37 32 28 25 23
31 31 31 32 31 31 31 33 32 35 34 34 41 41 43 46 46 48 42 46 53 48 43 44 43 42 39 35 31 26 23 18
Wind_Direction
293 295 300 303 311 314 314 316 317 317 316 308 307 308 309 309 310 306 300 295 292 287 283 280 278 276 273 268 264 261 259 259
291 295 300 303 305 313 316 317 317 311 309 303 307 309 309 314 309 303 297 286 283 286 284 283 283 282 279 276 271 268 266 264
302 304 303 304 308 312 312 315 318 317 312 312 315 316 318 322 323 320 316 309 297 287 281 282 283 281 277 275 274 272 269 267
304 306 308 308 309 313 313 319 318 312 310 316 317 314 316 320 321 318 313 308 302 298 293 289 285 280 276 275 274 272 269 265
303 306 306 305 312 315 313 312 308 308 311 318 316 314 310 310 309 311 314 312 306 302 298 294 292 290 286 281 278 273 269 266
301 305 306 307 311 307 306 305 306 308 315 318 316 315 317 317 313 311 309 307 308 305 301 298 294 291 288 285 282 279 275 269
305 302 302 305 306 305 303 305 308 311 316 315 315 314 315 313 313 313 311 308 307 305 303 300 295 290 286 283 281 279 278 274
301 297 301 305 304 303 301 304 307 310 312 314 315 313 313 314 313 312 310 308 307 305 302 299 294 289 285 283 281 280 279 278
300 298 304 301 300 297 298 303 305 308 310 314 311 312 313 314 313 313 310 308 306 304 303 302 295 291 288 287 286 284 281 278
302 299 302 300 299 299 302 306 305 308 312 309 310 312 313 312 312 310 310 308 308 308 306 303 298 295 294 290 290 287 281 274
297 300 301 300 301 302 304 308 307 312 306 307 311 312 311 313 314 314 313 313 311 309 307 303 302 302 299 296 291 285 279 273
302 301 298 298 301 303 301 303 308 305 307 311 313 312 315 316 317 318 318 315 312 311 308 306 308 306 303 297 293 287 281 274
301 296 296 301 303 301 300 306 305 304 311 312 314 317 318 320 321 319 319 316 315 314 313 314 311 309 305 301 297 289 282 276
296 299 301 302 301 297 303 305 304 309 312 315 317 319 320 320 320 321 321 319 319 320 319 317 315 313 309 305 302 294 286 279
298 299 301 304 303 305 303 303 308 312 314 318 320 321 321 322 322 326 325 323 323 324 321 321 319 318 316 314 310 303 296 289
304 307 307 304 301 301 304 307 312 316 319 321 321 324 326 327 329 329 328 327 329 328 327 326 327 326 324 321 316 311 306 296
301 304 301 302 302 303 307 311 315 317 318 320 326 329 333 331 333 332 331 335 335 333 333 334 332 332 330 327 323 318 312 303
302 299 301 298 304 310 311 312 315 317 318 325 332 332 333 333 336 336 338 341 342 339 341 340 340 339 337 334 330 325 315 308
303 306 303 306 307 308 311 312 315 317 323 332 332 332 334 337 339 342 345 350 348 347 347 346 348 348 345 341 339 333 327 319